• MPC Preparation (Info)

  • MPEC 2014-S36 : 2014 SS141

    The following Minor Planet Electronic Circular may be linked-to from your own Web pages, but must not otherwise be redistributed electronically.

    A form allowing access to any MPEC is at the bottom of this page.


    Read MPEC 2014-S35 Read MPEC 2014-S37


    M.P.E.C. 2014-S36                                Issued 2014 Sept. 22, 21:47 UT
    
         The Minor Planet Electronic Circulars contain information on unusual
             minor planets and routine data on comets.  They are published
       on behalf of Commission 20 of the International Astronomical Union by the
              Minor Planet Center, Smithsonian Astrophysical Observatory,
                              Cambridge, MA 02138, U.S.A.
    
                 Prepared using the Tamkin Foundation Computer Network
    
                                  MPC@CFA.HARVARD.EDU
                URL https://www.minorplanetcenter.net/    ISSN 1523-6714
    
                                      2014 SS141
    
    Observations:
         K14SE1S* C2014 09 19.42315 02 01 33.892+10 52 09.37         21.5 wLES036F51
         K14SE1S  C2014 09 19.43431 02 01 33.731+10 52 48.72         21.6 wLES036F51
         K14SE1S  C2014 09 19.45674 02 01 33.411+10 54 07.83         21.8 wLES036F51
         K14SE1S KC2014 09 20.45390 02 01 32.90 +11 52 11.8          25.6 RoES036291
         K14SE1S KC2014 09 20.45754 02 01 32.83 +11 52 24.4          25.7 RoES036291
         K14SE1S KC2014 09 20.46118 02 01 32.70 +11 52 36.7          25.5 RoES036291
         K14SE1S KC2014 09 22.33433302 01 25.42 +13 42 07.0          22.2 VuES036H21
         K14SE1S KC2014 09 22.35045502 01 24.98 +13 43 03.4          22.0 VuES036H21
         K14SE1S KC2014 09 22.36052802 01 24.72 +13 43 38.6          21.9 VuES036H21
    
    Observer details:
    291 LPL/Spacewatch II.  Observer R. A. Mastaler.  1.8-m f/2.7 reflector + CCD.
    F51 Pan-STARRS 1, Haleakala.  Observers N. Primak, A. Schultz, T. Goggia,
        M. Willman.  Measurers B. Bolin, K. Chambers, S. Chastel, L. Denneau,
        H. Flewelling, M. Huber, E. Magnier, E. Schunova, R. Wainscoat, C. Waters.
        1.8-m Ritchey-Chretien + CCD.
    H21 Astronomical Research Observatory, Westfield.  Observer R. Holmes.
        Measurers L. Buzzi, S. Foglia, T. Vorobjov, T. Linder.  1.3-m f/4.0
        astrograph + CCD.
    
    Orbital elements:
    2014 SS141                                               Earth MOID = 0.1350 AU
    Epoch 2014 Dec. 9.0 TT = JDT 2457000.5                  MPC
    M  46.19984              (2000.0)            P               Q
    n   0.56942660     Peri.  358.13509     +0.99996245     -0.00656522
    a   1.4415981      Node     2.26437     +0.00855694     +0.85111136
    e   0.2108123      Incl.    8.23016     -0.00136764     +0.52494413
    P   1.73           H   24.0           G   0.15           U   8
    Residuals in seconds of arc
    140919 F51  0.0   0.1+    140920 291  0.3+  0.2+    140922 H21  0.0   0.1+
    140919 F51  0.1-  0.0     140920 291  0.3+  0.1+    140922 H21  0.0   0.0
    140919 F51  0.2+  0.0     140920 291  0.6-  0.3-    140922 H21  0.2+  0.1-
    
    Ephemeris:
    2014 SS141               a,e,i = 1.44, 0.21, 8                   q = 1.1377
    Date    TT    R. A. (2000) Decl.     Delta      r     Elong.  Phase     V
    2014 08 23    01 34 50.0 -11 41 46   0.2089  1.1547   129.2    42.8    22.6
    ...
    2014 09 07    01 55 04.6 -00 36 22   0.1752  1.1410   136.3    37.6    22.0
    ...
    2014 09 15    02 00 28.4 +06 37 20   0.1637  1.1380   141.2    33.6    21.8
    ...
    2014 09 21    02 01 33.2 +12 24 24   0.1584  1.1378   145.1    30.3    21.6
    2014 09 22    02 01 28.2 +13 22 55   0.1578  1.1379   145.8    29.7    21.6
    2014 09 23    02 01 18.8 +14 21 23   0.1573  1.1381   146.4    29.2    21.5
    ...
    2014 09 29    01 58 49.4 +20 06 32   0.1564  1.1401   150.1    26.0    21.4
    ...
    2014 10 07    01 51 53.8 +27 06 09   0.1604  1.1455   153.6    22.8    21.4
    ...
    2014 10 22    01 32 55.4 +36 18 48   0.1833  1.1634   154.4    21.7    21.7
    
    A. U. Tomatic                (C) Copyright 2014 MPC           M.P.E.C. 2014-S36
    

    Read MPEC 2014-S35 Read MPEC 2014-S37


    MPEC number:

    Enter an MPEC number in one of the following forms:

    • 1997-B01 (the full form)
    • J97B01 (the packed version of the full form)
    • B01 (the abbreviated form)